sat.trackr.live / text

‹ back to catalog

TDRS 8

NORAD 26388 · 2000-034A

PAYLOAD ACTIVE UNKNOWN

§ Identity

Operator
Country
US
Launch date
2000-06-30
Launch site
AFETR
Launch vehicle
Mass (kg)
RCS (m²)
26.77

Purposes: comms

External: N2YO · Heavens-Above · Gunter

§ Orbital elements

Epoch: 2026-05-24T17:26:38.620896Z

Period
1,436.10 min
Inclination
12.6477°
Eccentricity
0.0005190
Mean motion
1.00271478 rev/d
Perigee alt
35,764.8 km
Apogee alt
35,808.6 km
Semi-major
42,164.8 km
B*
0.0000e+0
RAAN
31.5213°
Arg perigee
5.3612°
Mean anomaly
191.9576°
Rev number
9,494

§ Raw data

TDRS 81 26388U 00034A   26144.72683589 -.00000202  00000+0  00000+0 0  99922 26388  12.6477  31.5213 0005190   5.3612 191.9576  1.00271478 94947

JSON: /api/v1/satellites/26388 · /tle

For live sub-satellite position, see the globe view (requires WebGL).

§ Visibility from observer

Set your observer location to see the next 7 days of passes ≥ 10°. The values pass through the URL so the page stays shareable.

No JS? Fill the form by hand. The geolocation button needs JavaScript.